Content
SEND FEEDBACK

Daily
Averages
Monthly
Summary
Canada

QUEBEC CITY, QUEBEC


Home > North America > Canada > Quebec
Elevation: 239 feet     Latitude: 46 48N     Longitude: 071 23W

WEATHER
 
SELECT A DAY
Number of Records: 195,029;   Date Range: 6/30/96 - 9/30/14
 
SHARE

PRINT THIS DATA

[ ← Previous Day ]
WEATHER ALMANAC - MAY 4, 2014
[ Next Day → ]
[ °C ]   °F
Weather ElementAverageHighLow
Temperature43.1 °F47 °F (11:00 am)39.2 °F (5:00 am)
Dewpoint41 °F43 °F (2:00 pm)39.2 °F (2:00 am)
Humidity91.6 %100 % (5:00 am)79 % (11:00 am)
Barometer29.59 in29.69 in (1:00 am)29.52 in (2:00 pm)
Wind Speed10.1 mph18.4 mph (2:29 pm)
Wind Gust25.3 mph (2:29 pm)
Weather ElementAverage
Visibility9.5 mi
Wind DirectionENE (67.9 °)

Weather ElementTotal
Precipitation---
Heating Degree Days21.9 (Base 65)
Averaged from 39 records on May 4, 2014
WEATHER CONDITIONS BREAKOUT
WIND DIRECTION BREAKOUT
WEATHER BY HOUR - MAY 4, 2014
[ °C ]   °F
Local TimeTemperatureDewpointHumidityBarometerVisibilityWind DirectionWind SpeedGust SpeedPrecipitationEventsConditions
1:00 AM42.8 °F41.0 °F93 %29.69 in7.0 miENE (70°)10.4 mph18.4 mphRainLight Rain
2:00 AM41.0 °F40.0 °F96 %29.67 inENE (70°)9.2 mph
2:00 AM41.0 °F39.2 °F93 %29.68 in8.0 miENE (60°)9.2 mphRainLight Rain
3:00 AM41.0 °F39.2 °F93 %29.66 in5.0 miENE (60°)8.1 mph18.4 mphRainLight Rain
4:00 AM41.0 °F39.2 °F93 %29.65 in5.0 miENE (60°)9.2 mphRainLight Rain
5:00 AM39.2 °F39.2 °F100 %29.62 in6.0 miENE (60°)9.2 mphLight Drizzle
5:00 AM40.0 °F40.0 °F98 %29.62 inENE (70°)8.1 mph
6:00 AM41.0 °F39.2 °F93 %29.62 in10.0 miENE (60°)10.4 mphOvercast
7:00 AM41.0 °F39.2 °F93 %29.61 in12.0 miENE (70°)8.1 mphOvercast
8:00 AM41.0 °F39.2 °F93 %29.60 in12.0 miENE (60°)16.1 mph23.0 mphOvercast
8:00 AM41.0 °F40.0 °F94 %29.59 inENE (70°)9.2 mph
8:50 AM41.0 °F39.2 °F93 %29.59 in15.0 miENE (60°)11.5 mph17.3 mphOvercast
9:00 AM42.8 °F39.2 °F87 %29.58 in15.0 miENE (70°)11.5 mph19.6 mphOvercast
10:00 AM44.6 °F41.0 °F87 %29.57 in15.0 miENE (70°)8.1 mphOvercast
11:00 AM47.0 °F42.0 °F79 %29.54 inEast (80°)11.5 mph
11:00 AM46.4 °F41.0 °F81 %29.55 in15.0 miENE (70°)11.5 mph19.6 mphMostly Cloudy
11:34 AM44.6 °F41.0 °F87 %29.54 in15.0 miENE (70°)15.0 mph20.7 mphMostly Cloudy
12:00 PM46.4 °F42.8 °F87 %29.54 in15.0 miENE (60°)13.8 mphMostly Cloudy
1:00 PM46.4 °F42.8 °F87 %29.53 in15.0 miENE (70°)11.5 mphRainLight Rain Showers
1:14 PM46.4 °F42.8 °F87 %29.53 in8.0 miENE (70°)10.4 mphRainLight Rain Showers
1:39 PM44.6 °F42.8 °F93 %29.53 in8.0 miEast (90°)10.4 mphRainLight Rain Showers
2:00 PM44.0 °F43.0 °F94 %29.52 inEast (90°)11.5 mph
2:00 PM44.6 °F42.8 °F93 %29.53 in8.0 miEast (80°)10.4 mphRainLight Rain Showers
2:29 PM42.8 °F41.0 °F93 %29.54 in8.0 miENE (60°)18.4 mph25.3 mphRainLight Rain Showers
3:00 PM44.6 °F41.0 °F87 %29.54 in6.0 miENE (60°)15.0 mph21.9 mphLight Drizzle
3:25 PM44.6 °F42.8 °F93 %29.54 in8.0 miNE (50°)12.7 mph19.6 mphOvercast
4:00 PM46.4 °F42.8 °F87 %29.54 in7.0 miENE (60°)12.7 mphLight Drizzle
4:10 PM44.6 °F42.8 °F93 %29.54 in8.0 miENE (70°)12.7 mphRainLight Rain Showers
4:44 PM44.6 °F42.8 °F93 %29.55 in8.0 miENE (70°)8.1 mphRainLight Rain Showers
5:00 PM44.6 °F42.8 °F93 %29.56 in6.0 miEast (80°)8.1 mphRainLight Rain Showers
5:00 PM44.0 °F43.0 °F94 %29.55 inEast (80°)8.1 mph
6:00 PM44.6 °F41.0 °F87 %29.58 in8.0 miENE (60°)11.5 mphRainLight Rain Showers
7:00 PM42.8 °F41.0 °F93 %29.60 in8.0 miEast (80°)6.9 mphRainLight Rain Showers
8:00 PM42.0 °F41.0 °F96 %29.62 inEast (80°)5.8 mph
8:00 PM42.8 °F41.0 °F93 %29.62 in8.0 miENE (60°)9.2 mphRainLight Rain Showers
9:00 PM41.0 °F41.0 °F100 %29.65 in8.0 miENE (60°)8.1 mphRainLight Rain Showers
10:00 PM41.0 °F39.2 °F93 %29.67 in8.0 miENE (60°)8.1 mphRainLight Rain Showers
11:00 PM42.0 °F40.0 °F92 %29.68 inEast (90°)1.2 mph
11:00 PM41.0 °F39.2 °F93 %29.68 in10.0 miNE (40°)3.5 mphRainLight Rain Showers
Hourly data recorded from CYQB, located miles away from Quebec City, Quebec







STORIES FROM OUR PARTNERS